Tenerife, Spain

1:54 PM WET on December 17, 2017 (GMT +0000)
Tenerife

Weather History for GCXO - December, 2017

Change the Weather History Date:

Thursday, December 7, 2017

  Actual Average Record
Temperature  
Mean Temperature 57 °F -  
Max Temperature 61 °F 60 °F 69 °F (2000)
Min Temperature 53 °F 51 °F 48 °F (2014)
Degree Days  
Heating Degree Days 8    
Growing Degree Days 7 (Base 50)    
Moisture  
Dew Point 45 °F    
Average Humidity 66    
Maximum Humidity 77    
Minimum Humidity 48    
Precipitation  
Precipitation 0.00 in - - ()
Sea Level Pressure  
Sea Level Pressure 30.31 in    
Wind  
Wind Speed 14 mph ()    
Max Wind Speed 20 mph    
Max Gust Speed -    
Visibility 7.7 miles    
Events      
Averages and records for this station are not official NWS values.
T = Trace of Precipitation, MM = Missing Value Source: Averaged Metar Reports

Daily Weather History Graph

Daily Weather History Graph

Search for Another Location

Airport or City:

Trip Planner

Search our weather history database for the weather conditions in past years. The results will help you decide how hot, cold, wet, or windy it might be!

Date:

Astronomy

Dec. 07, 2017 Rise Set
Actual Time 7:44 AM WET 6:08 PM WET
Civil Twilight 7:19 AM WET 6:34 PM WET
Nautical Twilight 6:49 AM WET 7:03 PM WET
Astronomical Twilight 6:21 AM WET 7:32 PM WET
Moon 10:33 PM WET (12/7) 11:21 AM WET (12/7)
Length of Visible Light 11h 15m
Length of Day
10h 23m
Waning Gibbous, 80% of the Moon is Illuminated
Dec 7
Waning Gibbous
Dec 10
Last Quarter
Dec 18
New
Dec 26
First Quarter
Jan 2
Full

Hourly Weather History & Observations

Time (WET) Temp. Dew Point Humidity Pressure Visibility Wind Dir Wind Speed Gust Speed Precip Events Conditions
12:00 AM 55 °F 48 °F 70% 30.32 in 19 mi ESE 13.8 mph - -  
12:00 AM 55.4 °F 48.2 °F 77% 30.33 in 6.2 mi SE 12.7 mph - N/A   Scattered Clouds
12:30 AM 55.4 °F 48.2 °F 77% 30.33 in 6.2 mi ESE 16.1 mph - N/A   Mostly Cloudy
1:00 AM 55.4 °F 46.4 °F 72% 30.30 in 6.2 mi ESE 17.3 mph - N/A   Partly Cloudy
1:30 AM 55.4 °F 46.4 °F 72% 30.30 in 6.2 mi ESE 17.3 mph - N/A   Partly Cloudy
2:00 AM 55.4 °F 46.4 °F 72% 30.30 in 6.2 mi ESE 16.1 mph - N/A   Partly Cloudy
2:30 AM 55.4 °F 46.4 °F 72% 30.30 in 6.2 mi SE 16.1 mph - N/A   Scattered Clouds
3:00 AM 55.4 °F 46.4 °F 72% 30.30 in 6.2 mi SE 15.0 mph - N/A   Scattered Clouds
3:30 AM 55.4 °F 46.4 °F 72% 30.30 in 6.2 mi SE 13.8 mph - N/A   Partly Cloudy
4:00 AM 55.4 °F 46.4 °F 72% 30.30 in 6.2 mi SE 13.8 mph - N/A   Scattered Clouds
4:30 AM 55.4 °F 44.6 °F 67% 30.30 in 6.2 mi SE 11.5 mph - N/A   Partly Cloudy
5:00 AM 55.4 °F 46.4 °F 72% 30.30 in 6.2 mi ESE 13.8 mph - N/A   Scattered Clouds
5:30 AM 55.4 °F 48.2 °F 77% 30.30 in 6.2 mi ESE 15.0 mph - N/A   Scattered Clouds
6:00 AM 54 °F 46 °F 67% 30.29 in 19 mi ESE 15.0 mph - -   Partly Cloudy
6:00 AM 55.4 °F 46.4 °F 72% 30.30 in 6.2 mi ESE 15.0 mph - N/A   Scattered Clouds
7:00 AM 55.4 °F 46.4 °F 72% 30.30 in 6.2 mi ESE 13.8 mph - N/A   Mostly Cloudy
7:30 AM 55.4 °F 48.2 °F 77% 30.30 in 6.2 mi ESE 13.8 mph - N/A   Mostly Cloudy
8:00 AM 55.4 °F 46.4 °F 72% 30.33 in 6.2 mi ESE 13.8 mph - N/A   Scattered Clouds
8:30 AM 55.4 °F 46.4 °F 72% 30.33 in 6.2 mi ESE 13.8 mph - N/A   Scattered Clouds
9:00 AM 56 °F 49 °F 69% 30.33 in 19 mi ESE 13.8 mph - -   Mostly Cloudy
9:00 AM 55.4 °F 48.2 °F 77% 30.33 in 6.2 mi ESE 13.8 mph - N/A   Scattered Clouds
9:30 AM 57.2 °F 48.2 °F 72% 30.33 in 6.2 mi ESE 16.1 mph - N/A   Scattered Clouds
10:30 AM 57.2 °F 48.2 °F 72% 30.36 in 6.2 mi ESE 18.4 mph - N/A   Scattered Clouds
11:00 AM 59.0 °F 44.6 °F 59% 30.36 in 6.2 mi ESE 19.6 mph - N/A   Partly Cloudy
11:30 AM 59.0 °F 46.4 °F 63% 30.36 in 6.2 mi ESE 19.6 mph - N/A   Partly Cloudy
12:00 PM 60 °F 48 °F 55% 30.32 in 14 mi ESE 17.3 mph - -   Scattered Clouds
12:00 PM 60.8 °F 48.2 °F 63% 30.33 in 6.2 mi ESE 16.1 mph - N/A   Partly Cloudy
12:30 PM 60.8 °F 48.2 °F 63% 30.33 in 6.2 mi ESE 17.3 mph - N/A   Partly Cloudy
1:00 PM 60.8 °F 46.4 °F 59% 30.33 in 6.2 mi ESE 17.3 mph - N/A   Partly Cloudy
2:00 PM 60.8 °F 44.6 °F 55% 30.30 in 5.0 mi ESE 15.0 mph - N/A   Unknown
2:30 PM 59.0 °F 44.6 °F 59% 30.30 in 5.0 mi ESE 16.1 mph - N/A   Unknown
3:00 PM 59 °F 44 °F 48% 30.29 in 8 mi East 17.3 mph - -   Scattered Clouds
4:00 PM 57.2 °F 41.0 °F 55% 30.30 in - East 16.1 mph - N/A   Clear
4:30 PM 57.2 °F 44.6 °F 63% 30.30 in - ESE 15.0 mph - N/A   Clear
5:00 PM 57.2 °F 42.8 °F 59% 30.30 in - ESE 15.0 mph - N/A   Clear
5:30 PM 55.4 °F 42.8 °F 63% 30.30 in 6.2 mi ESE 12.7 mph - N/A   Partly Cloudy
6:00 PM 55 °F 42 °F 51% 30.30 in 14 mi ESE 15.0 mph - -   Clear
6:00 PM 55.4 °F 42.8 °F 63% 30.30 in - ESE 13.8 mph - N/A   Clear
6:30 PM 55.4 °F 42.8 °F 63% 30.30 in - ESE 15.0 mph - N/A   Clear
7:00 PM 53.6 °F 42.8 °F 67% 30.30 in - ESE 15.0 mph - N/A   Clear
7:30 PM 53.6 °F 42.8 °F 67% 30.30 in - ESE 12.7 mph - N/A   Clear
8:00 PM 55.4 °F 42.8 °F 63% 30.30 in - ESE 12.7 mph - N/A   Clear
8:30 PM 55.4 °F 44.6 °F 67% 30.33 in - SE 10.4 mph - N/A   Clear
9:00 PM 55.4 °F 42.8 °F 63% 30.33 in - SE 11.5 mph - N/A   Clear
9:30 PM 55.4 °F 41.0 °F 58% 30.33 in - ESE 15.0 mph - N/A   Clear
10:00 PM 55.4 °F 41.0 °F 58% 30.33 in - ESE 15.0 mph - N/A   Clear
10:30 PM 55.4 °F 41.0 °F 58% 30.33 in - ESE 15.0 mph - N/A   Clear
11:00 PM 55.4 °F 42.8 °F 63% 30.33 in - SE 13.8 mph - N/A   Clear
11:30 PM 53.6 °F 42.8 °F 67% 30.33 in 6.2 mi ESE 13.8 mph - N/A   Unknown